Weather Roundup
Issued by NWS Chicago, IL

Home | Current Version | Previous Version | Graphics & Text | Print | Product List | Glossary On
Versions: 1 2 3 4 5 6 7 8 9 10 11 12 13 14 15 16 17 18 19 20 21 22 23 24 25 26 27 28 29 30 31 32 33 34 35 36 37 38 39 40 41 42 43 44 45 46 47 48 49 50
000
NZUS59 KLOT 250006
HRRLOT

CHICAGO AREA WEATHER ROUNDUP
NATIONAL WEATHER SERVICE CHICAGO/ROMEOVILLE IL
600 PM CST MON NOV 24 2014

NOTE: "FAIR" INDICATES FEW OR NO CLOUDS BELOW 12,000 FEET WITH NO
SIGNIFICANT WEATHER AND/OR OBSTRUCTIONS TO VISIBILITY.

* THESE STATIONS ARE NOT UNDER NWS QUALITY CONTROL. THEY ALSO MAY NOT
  REPORT WEATHER SUCH AS PRECIPITATION OR FOG.

ILZ005-006-012>014-019>023-250100-
NORTHEAST ILLINOIS

CITY           SKY/WX    TMP DP  RH WIND       PRES   REMARKS
OHARE          CLOUDY    27  22  81 W25G40    29.63R WCI  12
6HR MIN TEMP:  27; 6HR MAX TEMP:  31; 6HR PCP:  0.01;

MIDWAY         FLURRIES  30  24  78 W25G39    29.65R WCI  16
6HR MIN TEMP:  30; 6HR MAX TEMP:  34; 6HR PCP: TRACE;

AURORA         LGT SNOW  28  21  75 W29G41    29.67R WCI  12
6HR MIN TEMP:  27; 6HR MAX TEMP:  36; 6HR PCP:  0.01;

LANSING*       FLURRIES  29  25  85 W23G36    29.67R WCI  16
JOLIET*        CLOUDY    28  24  85 W21G28    29.71R WCI  15
WAUKEGAN       LGT SNOW  26  22  84 W14G24    29.57R FOG     WCI  14
6HR MIN TEMP:  26; 6HR MAX TEMP:  32; 6HR PCP: TRACE;

DUPAGE AIRPORT LGT SNOW  26  21  81 W26G38    29.65R WCI  10
6HR MIN TEMP:  26; 6HR MAX TEMP:  31; 6HR PCP: TRACE;

WHEELING       CLOUDY    27  22  81 W17G31    29.64R WCI  14
6HR MIN TEMP:  27; 6HR MAX TEMP:  32; 6HR PCP:  0.02;

KANKAKEE*      FLURRIES  31  27  87 W21G36    29.74R WCI  18
MORRIS*        CLOUDY    29  26  88 W23G33    29.70R WCI  15
LEWIS AIRPORT* CLOUDY    28  26  89 W16G30    29.68R WCI  17
NORTHERLY IS     N/A     30  24  78 SW23        N/A  WCI  17
$$

WIZ051-052-058>065-066-070>072-250100-
SOUTHEAST WISCONSIN

CITY           SKY/WX    TMP DP  RH WIND       PRES   REMARKS
MILWAUKEE      LGT SNOW  28  23  81 W22G32    29.53R BLWGSNOWWCI  14
6HR MIN TEMP:  28; 6HR MAX TEMP:  39; 6HR PCP:  0.19;

KENOSHA*       LGT SNOW  27  24  89 W25G33    29.56R VSB 3/4 WCI  12
RACINE*        LGT SNOW  27  24  89 W16G25    29.56R FOG     WCI  15
BURLINGTON     LGT SNOW  24  22  93 W20G29    29.57R WCI   9
WEST BEND      LGT SNOW  28  27  93 W18G29    29.47R WCI  16
$$

INZ001>003-010>013-019-020-250100-
NORTHWEST INDIANA

CITY           SKY/WX    TMP DP  RH WIND       PRES   REMARKS
GARY*          CLOUDY    32  25  74 W28G48    29.66R WCI  18
MICHIGAN CITY* NOT AVBL
RENSSELAER*    NOT AVBL
VALPARAISO     CLOUDY    30  27  88 SW20G33   29.69R WCI  17
$$

LMZ740>746-250100-
SOUTHERN LAKE MICHIGAN

STATION/POSITION TIME  SKY/WX   TEMP WIND        PRES    VSBY
                                AIR  DIR/SP/G
                 (UTC)          (F)  (DEG/KT/KT) (MB)    (MI)
HARRISON CRIB    0000            30  250/ 32/ 41   N/A
BURNHAM HARBOR   0000            30  250/ 19/ 25   N/A
CALUMET HARBOR   0000            30  230/ 17/ 31 1002.6R
BURNS HARBOR     NOT AVBL
MICHIGAN CITY    0000            31  210/ 32/ 41   N/A
$$

ABBREVIATIONS USED IN REMARKS
   TC - TEMPERATURE IN CELSIUS
  WCI - WIND CHILL INDEX
   HX - HEAT INDEX
  VSB - VISIBILITY
$$


USA.gov is the U.S. government's official web portal to all federal, state and local government web resources and services.